Regional Weather Roundup
Issued by NWS

Home | Current Version | Previous Version | Graphics & Text | Print | Product List | Glossary On
Versions: 1 2 3 4 5 6 7 8 9 10 11 12 13 14 15 16 17 18 19 20 21 22 23 24 25 26 27 28 29 30 31 32 33 34 35 36 37 38 39 40 41 42 43 44 45 46 47 48 49 50
000
ASUS43 KIND 161159
RWRIN

WEATHER ROUNDUP FOR INDIANA
NATIONAL WEATHER SERVICE INDIANAPOLIS IN
800 AM EDT WED APR 16 2014

NOTE: "FAIR" INDICATES FEW OR NO CLOUDS BELOW 12,000 FEET WITH NO
SIGNIFICANT WEATHER AND/OR OBSTRUCTIONS TO VISIBILITY.

* - STATION DOES NOT REPORT WEATHER SUCH AS PRECIPITATION OR FOG.

+ - STATION NOT QUALITY CONTROLLED BY THE NATIONAL WEATHER SERVICE.
    USE DATA WITH CAUTION...ESPECIALLY DEWPOINT AND RELATIVE
    HUMIDITY OBSERVATIONS.

INZ001>003-010>013-019-020-161300-
NORTHWEST INDIANA

CITY           SKY/WX    TMP DP  RH WIND       PRES   REMARKS
GARY /AIRPORT/ PTCLDY    32  19  59 S8        30.31R WCI  25
VALPARAISO     CLEAR     27  19  72 SE8       30.32R WCI  19
6HR MIN TEMP:  22; 6HR MAX TEMP:  27;


$$

LMZ046-743>745-161300-
SOUTHERN LAKE MICHIGAN

STATION/POSITION TIME  TEMP WIND        PRES
                       AIR  DIR/SP/G
                 (UTC) (F)  (DEG/KT/KT) (MB)
MICHIGAN CITY    1100   30  140/ 10/ 14   N/A

$$

INZ004-005-014>016-021>024-161300-
NORTH CENTRAL INDIANA

CITY           SKY/WX    TMP DP  RH WIND       PRES   REMARKS
GOSHEN         CLEAR     28  17  63 SE8       30.35R WCI  20
6HR MIN TEMP:  25; 6HR MAX TEMP:  28;

SOUTH BEND     CLEAR     29  15  56 S10       30.34R WCI  20
6HR MIN TEMP:  27; 6HR MAX TEMP:  29;


$$

INZ006>009-017-018-025>027-161300-
NORTHEAST INDIANA

CITY           SKY/WX    TMP DP  RH WIND       PRES   REMARKS
ANGOLA *+      SUNNY     25  14  63 S5        30.35S WCI  19
FORT WAYNE     MOSUNNY   26  17  68 SE7       30.38R WCI  18
6HR MIN TEMP:  23; 6HR MAX TEMP:  26;


$$

INZ028-029-035-036-043>045-051>053-161300-
WEST CENTRAL INDIANA

CITY           SKY/WX    TMP DP  RH WIND       PRES   REMARKS
GREENCASTLE +  CLEAR     30  21  69 SE8       30.34S WCI  23
LAFAYETTE      CLEAR     29  20  69 SE7       30.34R WCI  22
6HR MIN TEMP:  25; 6HR MAX TEMP:  29;

TERRE HAUTE    CLEAR     31  22  69 SE8       30.34R WCI  23
6HR MIN TEMP:  29; 6HR MAX TEMP:  31;


$$

INZ030>032-037>040-046>048-054>057-064-065-161300-
CENTRAL INDIANA

CITY           SKY/WX    TMP DP  RH WIND       PRES   REMARKS
COLUMBUS       CLEAR     27  21  80 CALM      30.39R
INDIANAPOLIS   PTCLDY    28  18  66 SE10      30.35R WCI  19
6HR MIN TEMP:  26; 6HR MAX TEMP:  29;

-EAGLE CREEK   PTCLDY    29  17  61 SE5       30.35R WCI  24
6HR MIN TEMP:  28; 6HR MAX TEMP:  29;

KOKOMO *+      CLEAR     28  18  64 S12       30.36R WCI  18
MT COMFORT *+  CLEAR     28  21  74 SE6       30.36R WCI  22
SHELBYVILLE    PTCLDY    31  18  58 SE9       30.36R WCI  23
6HR MIN TEMP:  29; 6HR MAX TEMP:  31;


$$

INZ033-034-041-042-049-050-058-059-161300-
EAST CENTRAL INDIANA

CITY           SKY/WX    TMP DP  RH WIND       PRES   REMARKS
MUNCIE         SUNNY     28  16  60 SE7       30.36R WCI  21
6HR MIN TEMP:  26; 6HR MAX TEMP:  28;


$$

INZ060-061-067>069-081>083-085>088-161300-
SOUTHWEST INDIANA

CITY           SKY/WX    TMP DP  RH WIND       PRES   REMARKS
EVANSVILLE     CLEAR     34  22  61 SE6       30.35R WCI  29
6HR MIN TEMP:  32; 6HR MAX TEMP:  35;

HUNTINGBURG *+ CLEAR     30  21  69 SE10      30.35R WCI  21
6HR MIN TEMP:  28; 6HR MAX TEMP:  32;


$$

INZ062-063-066-070>080-084-089>092-161300-
SOUTH CENTRAL AND SOUTHEAST INDIANA

CITY           SKY/WX    TMP DP  RH WIND       PRES   REMARKS
BLOOMINGTON    CLEAR     30  20  66 SE6       30.35R WCI  24
6HR MIN TEMP:  27; 6HR MAX TEMP:  30;


$$




USA.gov is the U.S. government's official web portal to all federal, state and local government web resources and services.